Tucson, AZ

1:43 PM MST on October 16, 2019 (GMT -0700)
Tucson International

Weather History for KTUS - May, 2019

Change the Weather History Date:

Saturday, May 25, 2019

  Actual Average Record
Temperature  
Mean Temperature 73 °F 79 °F  
Max Temperature 89 °F 95 °F 105 °F (1896)
Min Temperature 56 °F 63 °F 43 °F (1980)
Degree Days  
Heating Degree Days 0 0  
Month to date heating degree days 1 3  
Since 1 July heating degree days 1409 1509  
Cooling Degree Days 8 14  
Month to date cooling degree days 148 259  
Year to date cooling degree days 328 413  
Growing Degree Days 22 (Base 50)    
Moisture  
Dew Point 23 °F    
Average Humidity 16    
Maximum Humidity 29    
Minimum Humidity 4    
Precipitation  
Precipitation 0.00 in 0.01 in 0.08 in (1967)
Month to date precipitation 1.22 0.18  
Year to date precipitation 5.03 3.02  
Sea Level Pressure  
Sea Level Pressure 29.76 in    
Wind  
Wind Speed 8 mph (South)    
Max Wind Speed 23 mph    
Max Gust Speed 35 mph    
Visibility 10 miles    
Events      
T = Trace of Precipitation, MM = Missing Value Source: NWS Daily Summary

Daily Weather History Graph

Daily Weather History Graph

Search for Another Location

Airport or City:

Astronomy

May. 25, 2019 Rise Set
Actual Time 5:20 AM MST 7:21 PM MST
Civil Twilight 4:53 AM MST 7:48 PM MST
Nautical Twilight 4:19 AM MST 8:22 PM MST
Astronomical Twilight 3:44 AM MST 8:57 PM MST
Moon 12:27 AM MST (5/25) 11:18 AM MST (5/25)
Length of Visible Light 14h 55m
Length of Day
14h 00m
Waning Gibbous, 58% of the Moon is Illuminated
May 25
Waning Gibbous
May 26
Last Quarter
Jun 3
New
Jun 9
First Quarter
Jun 17
Full

Hourly Weather History & Observations

Time (MST) Temp. Dew Point Humidity Pressure Visibility Wind Dir Wind Speed Gust Speed Precip Events Conditions
12:53 AM 64.9 °F 24.1 °F 21% 29.78 in 10.0 mi WSW 8.1 mph - N/A   Clear
1:53 AM 62.1 °F 23.0 °F 22% 29.78 in 10.0 mi ESE 5.8 mph - N/A   Clear
2:53 AM 57.9 °F 23.0 °F 26% 29.78 in 10.0 mi SE 3.5 mph - N/A   Clear
3:53 AM 57.0 °F 25.0 °F 29% 29.78 in 10.0 mi SSE 4.6 mph - N/A   Clear
4:53 AM 55.9 °F 24.1 °F 29% 29.79 in 10.0 mi SSE 5.8 mph - N/A   Clear
5:53 AM 55.9 °F 24.1 °F 29% 29.81 in 10.0 mi SE 9.2 mph - N/A   Clear
6:53 AM 62.1 °F 25.0 °F 24% 29.81 in 10.0 mi SE 9.2 mph - N/A   Clear
7:53 AM 66.9 °F 27.0 °F 22% 29.82 in 10.0 mi South 4.6 mph - N/A   Clear
8:53 AM 73.9 °F 28.0 °F 18% 29.82 in 10.0 mi Calm Calm - N/A   Clear
9:53 AM 78.1 °F 28.9 °F 17% 29.81 in 10.0 mi South 9.2 mph - N/A   Clear
10:53 AM 82.0 °F 26.1 °F 13% 29.80 in 10.0 mi SSW 10.4 mph - N/A   Clear
11:53 AM 82.9 °F 21.9 °F 11% 29.79 in 10.0 mi South 5.8 mph 18.4 mph N/A   Clear
12:53 PM 86.0 °F 21.0 °F 9% 29.76 in 10.0 mi SSW 12.7 mph 23.0 mph N/A   Clear
1:53 PM 89.1 °F 23.0 °F 9% 29.74 in 10.0 mi WSW 16.1 mph 29.9 mph N/A   Clear
2:53 PM 89.1 °F 23.0 °F 9% 29.73 in 10.0 mi South 15.0 mph 25.3 mph N/A   Clear
3:53 PM 89.1 °F 21.9 °F 9% 29.72 in 10.0 mi SW 16.1 mph 24.2 mph N/A   Clear
4:53 PM 88.0 °F 21.0 °F 9% 29.70 in 10.0 mi SW 12.7 mph 26.5 mph N/A   Clear
5:53 PM 87.1 °F 19.0 °F 8% 29.69 in 10.0 mi SSW 10.4 mph - N/A   Clear
6:53 PM 84.9 °F 19.0 °F 9% 29.69 in 10.0 mi SW 12.7 mph - N/A   Clear
7:53 PM 80.1 °F 19.0 °F 10% 29.71 in 10.0 mi SSW 6.9 mph - N/A   Clear
8:53 PM 78.1 °F 19.9 °F 11% 29.72 in 10.0 mi South 5.8 mph - N/A   Clear
9:53 PM 75.0 °F 19.9 °F 13% 29.73 in 10.0 mi South 3.5 mph - N/A   Clear
10:53 PM 71.1 °F 24.1 °F 17% 29.74 in 10.0 mi SW 5.8 mph - N/A   Clear
11:53 PM 71.1 °F 27.0 °F 19% 29.75 in 10.0 mi Calm Calm - N/A   Clear